{"data":{"norad_id":53831,"intl_designator":"2022-114P","name":"STARLINK-4649","alt_names":[],"object_type":"PAYLOAD","status":"ACTIVE","operator":null,"country":"US","launch_date":"2022-09-19","launch_site_code":"AFETR","launch_vehicle":null,"mission":null,"orbit_class":"UNKNOWN","rcs_meters":null,"size_class":null,"mass_kg":null,"dimensions":null,"purposes":["comms"],"wikipedia_slug":null,"has_3d_model":false,"image_url":null,"decayed_at":null,"tle_current":{"epoch":"2026-09-20T06:46:31.517472Z","epoch_age_seconds":102960,"freshness":"FRESH","line1":"1 53831U 22114P   26263.28230923  .00000462  00000+0  24805-4 0  9992","line2":"2 53831  53.1613 140.4067 0001253  88.5238 271.5908 15.34388824222349","mean_motion":15.34388824,"eccentricity":0.0001253,"inclination_deg":53.1613,"raan_deg":140.4067,"arg_perigee_deg":88.5238,"mean_anomaly_deg":271.5908,"bstar":2.4805e-5,"rev_number":22234,"period_min":93.848441638545,"perigee_km":461.87929639169,"apogee_km":463.59361928023,"semimajor_km":6840.873457836,"source":"CELESTRAK","updated_at":"2026-09-21T09:00:32.999974Z"}}}